Regional Weather Roundup
Issued by NWS Charleston, SC

Current Version | Previous Version | Graphics & Text | Print | Product List | Glossary On
Versions: 1 2 3 4 5 6 7 8 9 10 11 12 13 14 15 16 17 18 19 20 21 22 23 24 25 26 27 28 29 30 31 32 33 34 35 36 37 38 39 40 41 42 43 44 45 46 47 48 49 50
554
ASUS42 KCHS 212312
RWRCHS

Regional Weather Roundup
National Weather Service Charleston SC
600 PM EST WED FEB 21 2018

NOTE: "fair" indicates few or no clouds below 12,000 feet with no
significant weather and/or obstructions to visibility.

Not all stations are quality controlled. Use data with caution,
especially dewpoint observations.

SCZ027-030-031-034>040-042>050-220000-
...Southeast South Carolina...

CITY           SKY/WX    TMP DP  RH WIND       PRES   REMARKS
N Charleston   FAIR      74  66  76 S12       30.41S
Waterfront Prk   N/A     71  67  87 S7        30.26S
Mount Pleasant FAIR      72  68  88 S5        30.43R
Johns Island   MOCLDY    72  68  88 CALM      30.43R
Pinopolis        N/A     75  68  78 SE5       30.33S
Moncks Corner  FAIR      73  64  73 S6        30.41R
Summerville    FAIR      75  64  69 S5        30.41R
Beaufort MCAS  FAIR      74  69  85 S7        30.41R
Beaufort Arpt  FAIR      72  66  83 S6        30.41R
Hilton Head Is CLEAR     70  68  94 S3        30.42R
Walterboro     FAIR      73  64  73 SE6       30.41R
Allendale      FAIR      75  68  78 SE7       30.37S

...Southern Midlands and Pee Dee...

CITY           SKY/WX    TMP DP  RH WIND       PRES   REMARKS
Georgetown     FAIR      72  72 100 S7        30.44R
Kingstree      FAIR      73  64  73 SE6       30.40S
Orangeburg     FAIR      76  65  68 SE5       30.38R
Barnwell         N/A     79  68  69 SE7       30.37S
Aiken          FAIR      77  63  61 S6        30.40R
Manning        FAIR      73  63  68 MISG      30.40R
Columbia       FAIR      79  66  64 S9        30.36R
Sumter         PTCLDY    76  65  70 SE3       30.37R
Florence       MOCLDY    78  65  63 S7        30.40R
Myrtle Beach   FAIR      69  66  90 S8        30.44R
N Myrtle Beach FAIR      68  65  90 S8        30.43R

$$

GAZ063-065-086>088-099>101-113>116-118-119-134>141-150-220000-
...Southeast Georgia...

CITY           SKY/WX    TMP DP  RH WIND       PRES   REMARKS
Savannah Arpt  FAIR      75  67  76 SE15      30.40R
Hunter AAF     FAIR      73  70  89 SE10      30.38R
Fort Stewart   FAIR      77  63  61 SE7       30.37R
Statesboro     FAIR      78  62  56 SE7       30.38R
Sylvania       FAIR      77  69  76 SE3       30.38R
Claxton        FAIR      80  66  63 E10       30.37R

...CSRA, Central and far Southeast Georgia...

CITY           SKY/WX    TMP DP  RH WIND       PRES   REMARKS
Thomson        FAIR      78  63  60 S3        30.40S
Augusta-Bush   FAIR      80  63  55 S7        30.35R
Augusta-Daniel FAIR      81  62  52 SE7       30.36R
Swainsboro     FAIR      79  64  61 S5        30.36S
Vidalia        MOCLDY    81  64  57 SE8       30.35S
Eastman        FAIR      82  51  33 S5        30.37R
Hazlehurst     FAIR      82  55  39 SE3       30.34R
Alma           CLOUDY    81  64  56 SE10      30.35R
Waycross       MOCLDY    80  62  54 SE12      30.36R
Jesup          FAIR      79  63  57 CALM      30.38R
Baxley         FAIR      77  63  61 SE6       30.36R
Brunswick      FAIR      73  66  78 SE7       30.40R
Saint Simons   FAIR      71  68  90 E8        30.40R

$$

SCZ027-028-034-036>038-045-046-048>050-GAZ119-141-220000-
...Lake and Supplemental Coastal Observations...

STATION/POSITION TIME  TEMP    WIND        PRES    WAVE   SWELL
                       AIR SEA DIR/SP/G            HT/PER HT/PER/DIR
                 (UTC) (F)     (DEG/KT/KT) (MB)    (FT/S) (FT/S/D)
Winyah Bay       2145   75     190/  9     1030.0
Lake Murray      2220   76      CALM  /  2 1027.1
ACE Basin NERRS  2145   76     170/  2     1029.0
Fort Pulaski     2248   65 62  110/  6/  6 1030.2R
Sapelo Island    2200   76     140/  5     1029.0

$$

ANZ835-935-AMZ111-154-330-350-352-354-370-450-454-472-220000-
...C-MAN and Buoy Observations...

STATION/POSITION TIME  TEMP    WIND        PRES    WAVE   SWELL
                       AIR SEA DIR/SP/G            HT/PER HT/PER/DIR
                 (UTC) (F)     (DEG/KT/KT) (MB)    (FT/S) (FT/S/D)
Buoy 41004       2250   72 69  110/  4/  6 1030.5R   5/ 8   5/140/ 8
Buoy 41008       2250   66 61   90/  6/  6 1029.6R   3/ 8   3/110/ 8
Folly Beach CMAN 2200   67      CALM  /  2 1030.7F
Capers Nearshore 2208   62 61  120/  4/  8 1030.1R
Fripp Nearshore  2208   64 61  110/  6/  8 1029.1F


STATION/POSITION TIME  TEMP    WIND        PRES    WAVE   SWELL
                       AIR SEA DIR/SP/G            HT/PER HT/PER/DIR
                 (UTC) (F)     (DEG/KT/KT) (MB)    (FT/S) (FT/S/D)
5E St. Marys GA  2300      67                N/A     3/ 8
Frying Pan Buoy  2250   71 71  160/  4/  6 1031.3R   4/ 7   3/140/ 7
Buoy 41025       2250   72 71  210/  8/ 12 1031.8R   4/11   3/ 80/11
Cape Lookout NC  2200          200/  8/ 10 1031.3S
Buoy 41002       2250   72 74  120/  8/ 12 1032.3R   5/12   5/ 50/12
Buoy 41010       NOT AVBL
St Augustine FL  2300   70 65  100/  9/  9 1029.0R


$$




USA.gov is the U.S. government's official web portal to all federal, state and local government web resources and services.